{"data":{"norad_id":56479,"epoch":"2026-05-24T20:47:30.224256Z","epoch_age_seconds":86703,"freshness":"FRESH","line1":"1 56479U 23064AH  26144.86632204  .00000749  00000+0  70542-4 0  9995","line2":"2 56479  69.9990 292.2278 0002808 277.4765  82.6075 14.98337062167154","mean_motion":14.98337062,"eccentricity":0.0002808,"inclination_deg":69.999,"raan_deg":292.2278,"arg_perigee_deg":277.4765,"mean_anomaly_deg":82.6075,"bstar":7.0542e-5,"rev_number":16715,"period_min":96.106546151763,"perigee_km":570.08244434623,"apogee_km":573.98566040925,"semimajor_km":6950.1710523777,"source":"CELESTRAK","updated_at":"2026-05-25T13:38:18.072945Z"}}